Location: *
(16.7740°N, 40.5880°W)
Time: 14:16:28
(UTC+00:00)

Daily predictions for brighter satellites

Satellite Brightness Start Highest point End
(mag) Time Altitude Azimuth Time Altitude Azimuth Time Altitude Azimuth
CZ-3B Rocket 2.6 20:16:46 10° W 20:20:31 79° N 20:34:09 10° E
NOAA 6 4.1 20:26:36 10° SSE 20:31:46 86° ENE 20:36:55 10° N
PSLV R/B 3.9 20:28:21 10° SSE 20:31:55 46° ENE 20:35:27 10° N
Cosmos 540 Rocket 3.7 20:27:26 10° S 20:32:22 51° ESE 20:37:17 10° NNE
AQUARIUS 4.1 20:28:16 10° SSE 20:32:44 77° ENE 20:37:12 10° N
Landsat 5 3.6 20:29:04 10° NNE 20:33:02 50° E 20:36:52 10° S
ASTRO E2 3.4 20:30:05 10° WNW 20:33:54 54° SSW 20:37:45 10° SE
COSMOS 2455 3.1 20:29:17 10° S 20:35:01 49° ESE 20:40:46 10° NE
GPS 2-14 Rocket1 3.0 20:31:33 10° WNW 20:35:20 50° N 20:39:13 10° E
EXPRESS MD2 4.1 20:33:47 10° N 20:35:46 19° NE 20:38:31 10° ESE
Aurora 2 Rocket 4.1 20:32:28 10° W 20:38:15 52° N 20:46:09 11° ENE
ATLAS 3B R/B 3.4 20:33:48 10° NNW 20:41:14 70° WSW 20:48:47 10° SSE
Meteor 2-19 Rocket 4.4 20:35:41 10° N 20:41:46 78° E 20:47:52 10° S
CZ-2C R/B 3.3 20:42:05 10° S 20:44:29 15° SE 20:46:49 10° ESE
Cosmos 1408 Rocket 3.6 20:42:38 10° N 20:47:00 88° W 20:51:23 10° S
SL-4 R/B 2.3 20:43:55 10° NW 20:48:42 79° NE 20:53:28 10° SE
Cosmos 1743 Rocket 3.8 20:45:51 10° NNE 20:49:56 42° E 20:54:02 10° SSE
SMAP 4.1 20:46:13 10° S 20:50:42 49° W 20:55:11 10° NNW
Milstar 3 Cent rocket 3.8 20:49:19 10° W 20:53:20 27° SSW 20:57:39 10° SSE
CZ-4C R/B 2.7 20:51:35 10° NNE 20:54:49 78° E 20:58:09 10° S
CZ-4B R/B 3.4 20:50:24 10° SSE 20:55:45 50° ENE 21:01:01 10° N
ATLAS 5 CENTAUR R/B 4.0 20:49:59 10° NW 20:56:15 44° WSW 21:03:08 10° S
Delta 128 4.4 20:50:16 10° W 20:56:19 59° NNW 21:00:20 17° NE
CCE 1 Rocket 3.9 20:53:10 10° SW 20:57:04 44° SSE 20:59:35 18° E
Cosmos 1833 Rocket 3.6 20:51:45 10° SSW 20:57:08 49° WNW 21:02:33 10° N
Meteor 1-20 Rocket 4.5 20:52:59 10° N 20:58:37 50° E 21:04:14 10° SSE
Cosmos 841 Rocket 3.4 20:54:24 10° S 20:59:34 77° ESE 21:04:44 10° NNE
MOS 1-B 4.3 20:53:59 10° SSE 20:59:44 79° ENE 21:05:30 10° N
Nadezhda 4 Rocket 4.3 20:56:18 10° N 21:02:35 75° W 21:08:53 10° S
Cosmos 1151 Rocket 3.3 20:59:36 10° SSE 21:03:37 41° E 21:07:19 12° NNE
Cosmos 2142 Rocket 4.4 20:59:49 10° S 21:05:49 60° E 21:11:49 10° NNE
SJ-11-01 4.4 21:02:40 10° SSE 21:07:14 51° ENE 21:11:50 10° N
CZ-3 Stage 3 2.2 21:01:47 10° WNW 21:08:47 63° NNE 21:10:37 24° E
ARGOS 3.2 21:04:28 10° SSE 21:09:43 53° ENE 21:14:59 10° N
Cosmos 1092 Rocket 4.0 21:04:39 10° N 21:10:57 68° E 21:17:12 10° SSE
Cosmos 1570 Rocket 4.1 21:12:59 10° S 21:18:07 54° ESE 21:21:25 22° NNE
Cosmos 1782 3.8 21:14:16 10° SSW 21:18:08 47° W 21:22:00 10° N
SL-08 RB Rocket 4.0 21:14:15 10° SSE 21:18:39 43° ENE 21:23:03 10° N
Cosmos 1500 Rocket 4.1 21:16:41 10° NNW 21:21:02 61° W 21:25:20 10° S
SJ 16-02 2.9 21:17:03 10° NNW 21:21:04 37° W 21:25:06 10° SSW
SWIFT 2.3 21:16:55 10° W 21:21:09 69° N 21:22:34 39° ENE
Cosmos 1809 Rocket 4.3 21:18:01 10° N 21:24:04 76° E 21:30:08 10° S
Meteor 2-8 Rocket 4.4 21:18:17 10° S 21:24:15 58° E 21:30:14 10° NNE
YAOGAN 3 4.5 21:21:09 10° SSE 21:25:30 89° ENE 21:29:52 10° NNW
Cosmos 1428 Rocket 4.3 21:20:53 10° N 21:27:01 81° E 21:33:12 10° S
Cosmos 1627 Rocket 4.3 21:21:02 10° N 21:27:11 80° E 21:33:16 10° S
Cosmos 2279 Rocket 4.0 21:21:39 10° S 21:27:54 87° W 21:34:08 10° N
Cosmos 990 Rocket 4.0 21:25:10 10° N 21:30:11 50° ENE 21:35:08 10° SSE
Cosmos 1805 Rocket 3.4 21:27:15 10° N 21:31:34 89° WSW 21:35:54 10° S
Meteor 1-25 Rocket 4.3 21:27:33 10° N 21:33:06 78° W 21:38:44 10° S
H-2A R/B 3.5 21:29:18 10° S 21:34:20 40° W 21:39:16 10° NNW
H-2A R/B 2.0 21:35:50 30° NNE 21:38:03 88° ESE 21:42:33 10° SSW
Lacrosse 5 1.7 21:33:33 10° NNW 21:38:38 76° ENE 21:41:45 24° SE
Okean O Rocket 2.3 21:36:32 10° S 21:40:51 55° W 21:45:11 10° NNW
Cosmos 2208 Rocket 3.9 21:37:44 10° S 21:43:00 79° ESE 21:44:52 42° NNE
Cosmos 1814 Rocket 4.4 21:37:50 10° SSW 21:43:05 64° WNW 21:46:46 19° N
Cosmos 1812 4.2 21:41:34 10° SSW 21:45:06 36° W 21:48:06 13° NNW
Atlas Centaur 2 2.8 21:42:45 10° NW 21:44:33 23° NNW 21:44:33 23° NNW
Sich 1 3.1 21:43:18 10° N 21:47:33 72° W 21:51:51 10° S
Centaur AC-112 4.4 21:46:18 10° W 21:50:49 20° SW 21:52:27 14° S
Feng Yun 1-1 Rocket 4.3 21:46:48 10° SSE 21:52:40 90° ENE 21:58:36 10° NNW
OAO 1 Rocket 4.2 21:48:03 10° NW 21:53:21 79° NNE 21:53:37 77° ENE
Cosmos 1900 4.2 21:49:10 10° SSW 21:54:02 85° WNW 21:54:22 77° N
USA 234 4.2 21:49:31 10° SSE 21:55:45 47° SW 22:01:59 10° NW
Meteor 1-10 Rocket 4.2 21:50:40 10° S 21:56:35 85° E 21:58:22 47° N
YAOGAN 1 3.4 21:52:25 10° S 21:55:14 41° S 21:55:14 41° S
Spot 2 4.3 21:52:26 10° SSE 21:57:16 90° WSW 22:02:19 10° NNW
ATLAS 3B CENTAUR R/B 4.3 21:41:49 10° WSW 22:01:05 70° NNW 22:06:42 41° NE
Cosmos 2082 Rocket 4.0 21:59:08 10° SW 22:03:54 27° WNW 22:08:38 10° NNW
GPS 2-15 Rocket1 3.9 22:05:51 10° W 22:09:17 49° W 22:09:17 49° W
ATLAS 5 CENTAUR R/B 2.1 22:07:02 10° WSW 22:12:58 45° SW 22:12:58 45° SW
NOSS 3-1 (C) 4.2 22:11:20 10° NNW 22:19:55 90° WSW 22:29:08 10° SSE
CZ-2C R/B 3.7 22:19:53 10° WSW 22:21:19 21° WSW 22:21:19 21° WSW
H-2A R/B 4.3 21:25:10 10° WNW 22:36:01 70° NNE 22:38:38 61° ENE
CZ-4 R/B 4.1 22:33:10 10° SSW 22:34:38 17° SW 22:34:38 17° SW
USA 215 3.9 22:42:32 47° SSW 22:42:32 47° SSW 22:47:02 10° SSW
Ariane H10+ 4.5 23:08:25 10° WSW 23:31:30 51° SSW 23:31:30 51° SSW
